Change the Weather History Date:

Saturday, October 6, 2012

  Actual Average Record
Temperature  
Mean Temperature 39 °F 60 °F  
Max Temperature 48 °F 73 °F 87 °F (1997)
Min Temperature 30 °F 47 °F 30 °F (2012)
Degree Days  
Heating Degree Days 26 7  
Month to date heating degree days 70 37  
Since 1 July heating degree days 143 100  
Cooling Degree Days 0 2  
Month to date cooling degree days 3 12  
Year to date cooling degree days 1735 1356  
Moisture  
Dew Point 26 °F    
Average Humidity 67    
Maximum Humidity 96    
Minimum Humidity 37    
Precipitation  
Precipitation 0.00 in 0.13 in 0.50 in (2008)
Month to date precipitation T 0.76  
Year to date precipitation 18.13 32.78  
Sea Level Pressure  
Sea Level Pressure 30.34 in    
Wind  
Wind Speed 7 mph (NNW)    
Max Wind Speed 16 mph    
Max Gust Speed 21 mph    
Visibility 10 miles    
Events      
T = Trace of Precipitation, MM = Missing Value Source: NWS Daily Summary

Daily Weather History Graph

Daily Weather History Graph

Search for Another Location

Airport or City:

Trip Planner

Search our weather history database for the weather conditions in past years. The results will help you decide how hot, cold, wet, or windy it might be!

Date:

Astronomy

Oct. 06, 2012 Rise Set
Actual Time 7:22 AM CDT 6:54 PM CDT
Civil Twilight 6:55 AM CDT 7:21 PM CDT
Nautical Twilight 6:24 AM CDT 7:52 PM CDT
Astronomical Twilight 5:53 AM CDT 8:23 PM CDT
Moon 11:13 PM CDT (10/6) 1:14 PM CDT (10/6)
Length of Visible Light 12h 26m
Length of Day
11h 32m
Waning Gibbous, 65% of the Moon is Illuminated
Oct 6
Waning Gibbous
Oct 8
Last Quarter
Oct 15
New
Oct 21
First Quarter
Oct 29
Full

Hourly Weather History & Observations

Time (CDT) Temp. Windchill Dew Point Humidity Pressure Visibility Wind Dir Wind Speed Gust Speed Precip Events Conditions
12:52 AM 28.0 °F 22.8 °F 26.1 °F 92% 30.33 in 8.0 mi NNW 4.6 mph - N/A   Clear
1:52 AM 34.0 °F 28.8 °F 32.0 °F 92% 30.33 in 8.0 mi NNW 5.8 mph - N/A   Clear
2:52 AM 37.0 °F 32.4 °F 33.1 °F 86% 30.34 in 9.0 mi WNW 5.8 mph - N/A   Clear
3:52 AM 39.0 °F 34.8 °F 34.0 °F 82% 30.32 in 10.0 mi NW 5.8 mph - N/A   Partly Cloudy
4:52 AM 37.9 °F 33.5 °F 34.0 °F 86% 30.32 in 9.0 mi NW 5.8 mph - N/A   Clear
5:52 AM 39.0 °F - 33.1 °F 79% 30.31 in 10.0 mi Calm Calm - N/A   Clear
7:52 AM 41.0 °F 36.4 °F 28.0 °F 60% 30.33 in 10.0 mi North 6.9 mph - N/A   Clear
8:52 AM 43.0 °F 37.2 °F 25.0 °F 49% 30.36 in 10.0 mi North 10.4 mph - N/A   Clear
9:52 AM 44.1 °F 38.1 °F 23.0 °F 43% 30.38 in 10.0 mi North 11.5 mph - N/A   Partly Cloudy
10:52 AM 45.0 °F 38.9 °F 21.9 °F 40% 30.39 in 10.0 mi NNW 12.7 mph - N/A   Overcast
11:52 AM 46.0 °F 39.9 °F 21.0 °F 37% 30.38 in 10.0 mi NNW 13.8 mph - N/A   Partly Cloudy
12:52 PM 45.0 °F 39.3 °F 19.9 °F 37% 30.39 in 10.0 mi North 11.5 mph - N/A   Scattered Clouds
1:52 PM 45.0 °F 39.3 °F 23.0 °F 42% 30.37 in 10.0 mi North 11.5 mph - N/A   Overcast
2:52 PM 46.0 °F 41.9 °F 23.0 °F 40% 30.33 in 10.0 mi NNW 8.1 mph - N/A   Partly Cloudy
3:52 PM 46.9 °F - 23.0 °F 39% 30.32 in 10.0 mi NNW 10.4 mph - N/A   Scattered Clouds
4:52 PM 46.9 °F - 24.1 °F 41% 30.31 in 10.0 mi North 8.1 mph - N/A   Mostly Cloudy
5:52 PM 46.0 °F 40.6 °F 24.1 °F 42% 30.32 in 10.0 mi NNW 11.5 mph - N/A   Overcast
6:52 PM 45.0 °F 40.6 °F 24.1 °F 44% 30.33 in 10.0 mi NNW 8.1 mph - N/A   Overcast
7:52 PM 42.1 °F 40.2 °F 25.0 °F 51% 30.32 in 8.0 mi NNW 3.5 mph - N/A   Mostly Cloudy
8:52 PM 42.1 °F 40.2 °F 27.0 °F 55% 30.34 in 10.0 mi WNW 3.5 mph - N/A   Scattered Clouds
9:52 PM 41.0 °F - 27.0 °F 57% 30.34 in 10.0 mi Calm Calm - N/A   Overcast
10:52 PM 39.0 °F - 28.9 °F 67% 30.34 in 10.0 mi Calm Calm - N/A   Mostly Cloudy
11:52 PM 34.0 °F 31.0 °F 28.0 °F 79% 30.34 in 9.0 mi North 3.5 mph - N/A   Mostly Cloudy